Tracking 28790 objects as of 19-Apr-2024
HD Live streaming from Space Station
objects crossing your sky now

COSMOS 2251 DEB

Track COSMOS 2251 DEB now!
10-day predictions


NORAD ID: 34323
Int'l Code: 1993-036NV
Perigee: 657.6 km
Apogee: 789.6 km
Inclination: 74.0 °
Period: 99.1 minutes
Semi major axis: 7094 km
RCS: 0.033 m2 (small)
Launch date: June 16, 1993
Source: Commonwealth of Independent States (former USSR) (CIS)
Launch site: PLESETSK MISSILE AND SPACE COMPLEX (PKMTR)

Note: This is SATELLITE DEBRIS
Your satellite tracking list
Your tracking list is empty




NASA's NSSDC Master Catalog

Two Line Element Set (TLE):
1 34323U 93036NV  24109.34487802  .00014844  00000-0  34106-2 0  9995
2 34323  73.9649 207.7062 0092994  32.4258  33.6993 14.52821238796096
Source of the keplerian elements: AFSPC